Probability
6 6 6 6 6 4 4 4 3 3 4 5 6 6 5 5 4 4 4 4 4 4 4 5 6 7 8 9 8 5 3 3 4 3 1 0 0 1 2 3 3 2 3
6 6 6 7 6 6 5 4 3 3 4 5 6 5 5 4 4 5 5 4 4 4 5 5 5 6 8 9 8 5 4 3 2 2 1 0 0 1 3 3 3 3 3
6 6 6 7 8 8 7 6 4 4 5 6 6 5 4 5 6 7 7 4 3 4 4 4 4 5 8 9 7 6 4 2 1 0 0 0 1 2 3 3 3 3 3
4 4 6 7 9 9 9 8 6 5 5 7 8 6 5 5 6 7 6 5 3 3 3 3 4 5 7 8 7 6 4 2 1 0 0 0 1 2 3 3 3 3 3
1 2 5 7 9 10 10 10 8 6 5 7 9 9 6 5 5 6 6 5 4 3 3 3 4 6 7 7 6 5 4 2 1 1 1 0 0 2 3 3 3 3 3
0 1 4 7 9 10 11 11 8 6 5 7 9 9 6 4 5 6 6 6 5 4 4 4 5 6 7 7 5 5 4 2 1 2 1 0 1 3 4 4 3 3 3
0 1 4 8 9 9 9 8 7 6 6 6 7 7 5 5 6 6 6 6 6 5 5 6 7 7 7 7 6 5 5 2 1 1 1 0 2 5 7 5 4 4 4
0 0 3 6 7 6 6 6 6 6 7 6 5 5 4 4 4 5 5 6 5 4 5 7 9 8 7 7 8 8 7 4 2 0 0 1 3 7 9 8 6 5 5
0 0 1 2 3 3 4 5 5 5 7 6 5 4 4 3 2 2 3 4 3 3 4 5 8 8 7 7 8 10 10 7 3 1 1 2 4 7 9 11 10 9 9
1 0 0 0 0 2 4 5 3 3 5 6 5 4 3 1 0 0 1 3 3 2 1 3 5 7 8 8 9 11 11 9 5 3 2 2 4 6 8 11 12 12 13
2 1 0 0 1 2 3 3 2 2 3 4 3 3 1 0 0 0 1 3 5 4 2 2 5 7 8 9 9 10 9 8 6 3 1 2 3 5 7 9 12 13 14
3 2 1 1 2 3 3 3 2 3 3 2 1 1 0 0 0 0 1 2 5 5 4 4 6 7 7 8 8 8 7 7 5 2 1 2 3 4 5 7 9 13 13
4 3 3 3 3 3 3 3 3 3 3 1 0 0 0 0 0 0 0 1 2 3 3 5 6 6 5 6 6 6 6 6 4 1 1 2 3 4 5 6 8 11 12
4 4 4 3 3 3 3 3 3 3 3 1 0 0 0 0 0 0 0 0 0 1 2 3 3 3 2 3 4 4 4 4 2 0 1 3 4 6 7 7 8 10 11
6 4 3 3 3 3 3 3 3 3 3 2 1 0 0 0 0 0 0 0 0 0 1 1 1 1 1 1 1 1 3 4 2 0 1 4 5 6 7 7 8 9 9
8 5 2 3 3 3 3 4 3 3 3 2 1 0 0 0 0 0 0 0 0 0 0 0 0 1 0 0 0 0 2 3 2 0 1 3 5 6 6 7 8 8 8
10 6 3 3 4 4 4 4 4 3 3 2 1 0 0 0 0 0 0 0 0 0 0 0 0 0 0 0 0 0 1 2 2 1 0 1 3 4 5 5 6 8 9
10 8 7 7 7 6 5 4 4 3 3 2 1 0 0 0 0 0 0 0 0 0 0 0 0 0 0 0 0 0 0 1 2 2 1 0 1 1 2 2 5 8 10
11 10 10 11 11 10 9 6 5 4 3 2 1 0 0 0 0 0 0 0 0 0 0 0 0 0 0 0 0 0 0 0 1 1 1 0 0 0 0 1 4 7 9
15 13 12 12 14 14 12 9 7 5 3 2 1 0 0 0 0 0 0 0 0 0 0 0 0 0 0 0 0 0 0 0 0 0 0 0 0 0 0 0 1 3 5
19 16 14 14 16 15 12 9 8 7 5 2 1 1 0 0 0 0 0 0 0 0 0 0 0 0 0 0 0 0 0 0 0 0 0 0 0 1 1 1 0 0 1
19 18 17 18 19 16 11 8 8 8 7 4 2 1 1 1 1 1 0 0 0 0 0 0 0 0 0 0 0 0 0 0 0 0 0 0 1 2 2 2 1 1 2
16 18 19 20 20 18 13 10 9 8 7 5 3 2 1 2 2 1 0 0 0 0 0 0 0 0 0 0 0 0 0 0 0 0 0 0 1 2 3 3 2 3 4
15 18 21 21 21 19 16 14 11 8 7 6 4 3 3 3 2 1 1 1 0 0 0 0 0 0 0 0 0 0 0 0 0 0 0 0 0 1 1 2 2 3 4
19 21 25 26 24 22 19 16 12 8 7 6 5 4 4 4 2 2 3 1 0 0 0 0 0 0 0 1 1 1 0 0 0 0 0 0 0 0 0 1 2 3 4
22 24 29 30 28 24 21 18 13 9 7 7 6 4 4 4 2 2 3 2 1 0 0 0 0 0 0 1 2 2 1 0 0 0 0 0 0 0 0 1 2 4 5
Wind_Speed
3 5 10 10 10 10 11 10 11 11 12 12 12 12 13 13 13 13 13 13 12 12 12 12 12 12 12 12 12 12 12 12 12 12 12 12 11 11 11 12 11 8 12
7 6 11 11 11 11 11 11 11 11 11 11 11 12 12 12 12 12 12 12 11 11 12 11 11 11 11 11 11 11 11 11 11 11 11 10 10 10 11 12 11 7 12
9 7 9 12 11 11 11 11 10 11 11 11 11 11 11 11 11 11 11 11 11 11 11 11 10 10 10 11 11 10 10 10 10 10 9 5 6 10 10 12 12 12 12
10 6 8 12 11 11 11 10 10 10 10 10 10 10 10 10 10 10 10 10 10 10 10 10 10 9 9 9 9 9 9 9 9 9 4 4 4 9 10 12 12 12 11
8 6 8 13 12 11 11 10 10 10 9 9 9 9 9 9 9 9 10 9 9 10 10 9 9 8 8 8 8 8 8 8 8 6 4 3 3 9 11 12 12 12 11
8 6 8 13 12 11 11 10 10 9 9 9 9 9 8 8 9 9 9 8 8 8 8 8 8 7 7 8 8 7 7 7 6 3 3 4 4 9 11 12 11 11 11
8 5 7 12 12 11 11 10 9 9 9 9 8 8 7 7 8 8 8 7 7 8 8 7 7 6 6 7 7 6 6 7 4 3 3 4 5 10 11 11 11 11 11
9 6 6 11 12 11 11 10 9 8 8 8 8 8 7 6 7 7 7 7 6 7 7 7 6 6 6 7 7 6 6 6 5 4 4 4 8 11 12 11 11 11 11
8 6 4 5 7 10 11 10 9 8 8 8 7 7 7 6 6 6 6 6 6 6 5 6 6 6 6 6 6 6 6 6 3 3 5 4 9 12 13 12 12 11 11
6 5 4 4 3 4 5 9 8 7 7 7 7 6 6 6 5 6 5 6 6 5 4 5 6 5 5 5 6 6 5 5 3 3 3 5 10 13 13 12 12 12 11
6 4 4 4 4 3 4 6 6 6 5 5 4 5 4 2 2 3 4 6 6 5 5 5 6 6 5 4 6 7 5 2 3 2 2 6 9 11 13 12 12 12 12
6 6 4 5 5 4 4 3 2 2 2 1 1 1 1 1 2 2 4 6 6 6 5 5 6 5 4 2 4 5 2 3 3 3 4 9 10 11 12 12 12 12 12
8 7 6 5 5 4 2 3 2 1 1 1 1 1 1 1 0 0 0 1 2 3 2 2 2 1 1 2 2 2 2 3 2 3 4 10 10 11 12 11 11 11 11
7 7 6 6 5 5 4 3 2 2 1 1 2 2 1 1 1 1 0 0 0 1 1 1 1 2 2 3 3 2 3 3 3 2 4 9 10 11 11 11 11 11 11
7 7 7 6 5 4 4 3 3 2 2 2 1 1 2 1 1 1 1 0 0 0 1 2 1 1 2 2 2 3 3 4 3 3 2 7 9 9 10 10 11 11 12
8 7 7 6 5 5 4 3 3 2 2 2 1 1 2 1 1 1 1 1 0 0 1 1 2 1 1 1 2 2 3 3 4 4 3 4 7 8 9 9 10 11 12
8 7 7 7 6 5 4 4 3 2 2 2 2 1 2 2 1 2 1 1 0 0 1 1 1 1 1 1 1 2 2 3 4 4 3 2 3 6 8 8 8 9 11
7 7 7 7 6 5 4 3 2 3 3 2 2 1 1 2 2 2 1 1 1 1 1 1 1 1 1 1 0 0 1 2 3 3 3 3 2 3 5 7 8 8 10
8 8 6 6 6 5 4 3 3 3 3 2 2 1 1 2 2 2 1 1 1 2 2 1 1 1 1 1 0 0 1 1 2 3 3 3 3 3 3 5 7 7 9
8 8 7 6 6 5 4 3 2 2 2 2 2 2 2 1 2 2 2 1 2 2 2 2 2 1 1 0 0 1 0 1 1 2 3 3 3 3 3 3 3 5 8
7 7 7 6 6 5 3 3 3 2 1 1 1 2 2 2 2 2 2 2 2 2 1 1 1 2 1 1 2 2 2 1 1 2 2 2 2 3 3 3 3 2 3
9 8 7 7 7 6 4 3 3 3 2 2 1 1 2 2 2 3 2 2 2 2 2 2 1 1 1 1 2 1 2 3 2 1 1 1 2 2 2 4 3 3 3
8 9 8 7 7 6 5 3 3 2 2 1 1 1 1 1 2 2 2 2 2 2 1 1 1 2 1 1 1 2 2 1 2 2 1 0 1 1 1 2 3 3 4
9 8 7 7 7 6 6 5 5 4 3 3 2 2 2 2 2 2 2 2 2 1 1 0 1 1 2 1 1 1 1 2 1 1 3 2 1 1 1 1 2 2 3
8 7 6 6 6 6 6 6 6 4 3 2 2 2 2 1 2 2 2 2 2 1 1 1 1 1 1 1 0 0 1 1 1 1 1 3 2 1 1 1 1 1 2
6 6 6 6 5 6 6 6 6 6 5 4 3 3 2 1 1 1 2 2 2 1 1 1 1 2 1 1 1 1 1 1 1 1 1 2 2 2 1 1 1 2 3
Wind_Direction
155 157 139 131 123 117 110 105 101 103 104 103 103 105 110 114 118 122 126 127 130 132 134 135 134 135 134 134 134 134 132 132 131 132 132 133 132 132 130 131 129 126 127
151 152 138 131 127 120 114 109 105 105 107 107 108 108 112 119 122 123 127 129 130 133 134 135 134 136 137 136 135 135 134 134 134 134 136 138 138 137 135 136 134 135 134
141 146 139 132 130 126 120 115 111 109 110 111 114 115 115 118 123 126 127 130 130 132 134 135 136 136 137 139 140 140 140 139 140 140 139 134 139 138 137 141 141 139 137
142 145 142 136 134 131 126 122 118 115 114 116 117 119 120 121 122 128 129 130 133 134 135 138 141 142 141 144 148 149 147 146 148 148 143 144 147 145 143 145 144 143 142
141 146 149 141 138 135 131 127 125 121 118 120 122 122 125 128 128 130 134 134 138 140 141 144 147 147 147 149 151 152 152 154 157 152 144 152 152 152 152 151 149 148 148
141 148 150 143 141 140 135 131 130 125 122 123 125 125 125 131 134 134 136 140 143 146 148 150 155 157 160 159 159 160 163 166 159 152 153 156 151 158 157 156 153 152 151
142 147 149 144 142 141 138 135 133 126 125 126 127 127 127 133 141 145 146 151 152 153 158 162 166 166 170 172 172 175 178 177 158 158 155 152 165 167 164 163 160 159 158
144 145 148 146 142 141 141 139 137 132 130 133 134 133 133 133 143 152 156 156 161 165 162 168 170 173 178 180 182 185 187 182 173 168 160 166 176 174 171 169 169 167 164
141 140 141 151 151 149 147 146 142 139 139 139 140 140 140 140 141 152 157 157 157 158 163 174 180 185 186 186 188 193 194 189 172 168 177 175 182 179 177 177 177 174 172
136 141 140 143 147 151 152 151 148 146 144 144 147 146 148 150 153 161 168 170 168 170 177 185 189 194 198 198 196 196 199 189 181 173 172 180 184 183 183 185 184 182 181
137 145 146 145 143 149 151 155 151 149 154 152 158 156 156 166 180 176 183 185 187 188 196 198 197 202 207 207 200 196 194 174 168 169 175 184 184 184 187 190 189 187 186
152 160 163 158 157 156 159 140 135 140 143 140 156 176 155 181 206 191 203 198 200 199 203 207 206 208 208 193 204 201 182 171 168 178 189 189 189 188 189 191 192 191 190
159 163 168 166 162 161 153 144 146 139 142 151 169 175 158 168 215 206 200 216 215 208 207 208 211 215 197 184 192 181 178 172 177 193 194 191 192 192 191 192 194 195 194
144 153 157 159 158 161 151 152 151 153 161 169 177 162 136 120 140 167 130 122 214 203 182 174 192 208 206 212 203 187 180 175 182 190 200 194 195 193 191 193 196 197 199
145 150 150 151 153 149 140 149 147 164 172 173 154 149 136 131 153 150 165 119 186 176 167 175 180 190 194 207 198 183 178 175 170 172 192 193 194 193 192 194 197 200 200
153 155 152 146 145 137 137 140 143 154 154 138 127 137 136 137 145 128 119 112 137 209 181 166 164 170 184 186 195 193 186 169 172 178 188 192 193 192 191 194 197 202 206
158 154 154 150 144 140 140 143 137 139 135 132 136 140 123 122 128 120 94 75 73 139 128 124 121 118 144 144 155 180 182 171 178 185 185 187 193 195 195 199 199 203 207
153 153 157 152 148 146 141 139 130 133 135 138 140 131 118 108 113 109 81 40 21 56 65 99 102 111 111 115 111 167 173 175 187 183 181 183 191 198 201 204 206 207 209
156 156 157 149 152 152 142 135 134 132 133 138 135 130 125 110 112 109 84 38 49 62 46 77 84 99 93 77 114 129 169 182 185 183 190 196 198 195 197 205 208 207 208
158 157 156 150 155 149 137 120 111 111 124 133 142 150 147 129 113 108 94 62 76 73 46 45 67 56 85 98 43 52 78 203 191 192 200 204 207 202 201 209 212 213 207
156 156 158 155 161 153 147 145 135 138 147 143 159 154 144 138 126 112 94 68 75 88 86 69 73 55 28 56 65 26 1 332 204 218 208 203 209 209 192 201 207 207 213
165 164 164 166 166 164 165 159 149 143 145 152 157 135 137 130 129 122 114 103 93 85 62 52 66 66 11 48 104 87 10 349 335 282 209 204 210 204 205 210 208 203 203
171 174 174 173 168 167 154 134 121 96 80 87 113 141 150 143 122 111 119 116 109 107 96 52 69 102 81 1 77 128 135 235 310 334 322 265 209 201 222 209 209 212 207
182 179 173 171 166 165 155 151 153 154 165 185 169 156 152 155 142 130 128 120 117 111 106 62 88 104 103 29 345 38 155 164 156 323 333 326 293 238 245 226 221 220 207
180 176 174 166 166 164 160 160 159 159 163 147 132 136 149 158 149 144 132 118 113 113 107 70 62 73 97 111 65 10 30 39 101 148 289 317 333 305 261 240 206 214 210
175 171 168 161 170 170 165 164 163 163 158 146 148 156 164 151 133 148 127 126 126 125 129 119 92 82 78 78 71 76 115 133 186 162 214 271 295 295 286 255 211 215 219